Location: Cuzcurrita-R�o Tir�n
(42.5415°N, 2.9642°W)
Time: 19:01:37
(UTC+00:00)

SAR-Lupe-4 - Pass Details

Date: 17 January 2021
Orbit: 480 x 484 km, 98.2° (Epoch: 02 March)

Event Time Altitude Azimuth Distance (km) Brightness Sun altitude
Exits shadow 18:12:29 16° 45° (NE) 1,348 5.3 -12.0°
Maximum altitude 18:14:44 29° 98° (E) 908 4.4 -12.4°
Drops below altitude 10° 18:17:53 10° 160° (SSE) 1,655 6.2 -13.0°
Sets 18:20:07 0° 172° (S) 2,528 7.3 -13.4°
